TIANWANG 1C (TW-1C)     
1 40926U 15051B   16151.42376560  .00008266  00000-0  23581-3 0  9994
2 40926  97.2763 188.5362 0016307 110.4821  13.9843 15.36168357 38031
TIANWANG 1B (TW-1B)     
1 40927U 15051C   16151.56685480  .00007406  00000-0  21721-3 0  9993
2 40927  97.2860 188.8141 0015844 116.4745  13.8147 15.35344817 38047
TIANWANG 1A (TW-1A)     
1 40928U 15051D   16151.39945188  .00004279  00000-0  13566-3 0  9992
2 40928  97.2713 187.7787 0015721 126.5071   0.2630 15.33125278 37993
LAPAN-A2 (IO-86)        
1 40931U 15052B   16151.31341470  .00000738  00000-0  13745-4 0  9999
2 40931   5.9971  82.5268 0013766 228.2133 131.6436 14.76461450 36286
GOMX 3                  
1 40949U 98067HA  16151.45513561  .00041170  00000-0  24160-3 0  9999
2 40949  51.6303 126.0389 0003616 120.2908 239.8451 15.77843953 37265
LQSAT                   
1 40958U 15057A   16151.51218441  .00000125  00000-0  27382-4 0  9998
2 40958  98.0148 226.6380 0017369 207.2723 152.7580 14.72866172 34788
CHUBUSAT-2              
1 41338U 16012B   16151.07887695  .00000563  00000-0  37940-4 0  9994
2 41338  31.0040  24.7751 0014309 228.8891 131.0508 14.99376188 15437
CHUBUSAT-3              
1 41339U 16012C   16151.06273534  .00000548  00000-0  36550-4 0  9994
2 41339  31.0110  24.6699 0014056 234.4755 125.4578 14.99606344 15408
OUFTI-1                 
1 41458U 16025C   16151.55165430  .00003046  00000-0  17455-3 0  9997
2 41458  98.2142 161.0331 0178517 126.1985 235.5893 15.00920177  5132
E-ST@R-II               
1 41459U 16025D   16151.08467834  .00002549  00000-0  14682-3 0  9995
2 41459  98.2152 160.5396 0178595 127.7058 234.0523 15.00921470  5066
AAUSAT 4                
1 41460U 16025E   16151.48363268  .00004064  00000-0  23076-3 0  9998
2 41460  98.2140 160.9631 0178275 126.3582 235.4338 15.01021022  5124
